User: anonymous
Location: Bowman Observatory
(41.0326°N, 73.6210°W)
Time: 05:42:43
(UTC-04:00)
Language:

Cosmos 2297 - Orbit

View from above orbital plane
View from above orbital plane
View from above satellite
View from above satellite

Ground track
Ground track

The orbit data is extracted from the following two-line orbital elements,

1 23404U 94077A   14202.82725889  .00000131  00000-0  94711-4 0  8189
2 23404 071.0179 354.6346 0017457 317.0985 145.9929 14.13399319 14106
Epoch (UTC): 21 July 2014 19:51:15
Eccentricity: 0.0017457
inclination: 71.0179°
perigee height: 835 km
apogee height: 860 km
right ascension of ascending node: 354.6346°
argument of perigee: 317.0985°
revolutions per day: 14.13399319
mean anomaly at epoch: 145.9929°
orbit number at epoch: 1410

The dashed part of the orbit path shows where the satellite is in the earth's shadow,  

DLR